Location: Cork
(51.8990°N, 8.4960°W)
Time: 05:13:49
(UTC+01:00)

Iridium 66 - Visible Passes

Search period start: 27 May 2017 00:00
Search period end: 06 June 2017 00:00
Orbit: 776 x 779 km, 86.4° (Epoch: 26 May)

Date Brightness Start Highest point End Pass type
(mag) Time Alt. Az. Time Alt. Az. Time Alt. Az.
27 May 6.8 00:13:25 21° SE 00:16:23 38° E 00:21:12 10° NNE visible
27 May 7.1 01:53:53 18° SW 01:57:09 35° WNW 02:01:57 10° N visible
27 May 7.5 23:39:51 14° ESE 23:43:05 24° ENE 23:47:12 10° NNE visible
28 May 6.4 01:20:19 23° SSW 01:23:25 58° W 01:28:36 10° N visible
28 May 8.5 03:04:36 10° WNW 03:05:24 10° WNW 03:06:12 10° NW visible
28 May 8.0 23:07:06 10° ESE 23:09:56 15° ENE 23:12:44 10° NE visible
29 May 6.0 00:46:44 25° S 00:49:50 86° E 00:55:06 10° N visible
29 May 8.1 02:27:59 10° WSW 02:31:20 17° WNW 02:34:41 10° NNW visible
30 May 6.4 00:13:09 22° SSE 00:16:21 52° E 00:21:26 10° NNE visible
30 May 7.6 01:53:36 13° SW 01:57:24 27° WNW 02:01:49 10° NNW visible
30 May 7.1 23:39:33 16° SE 23:43:00 32° E 23:47:35 10° NNE visible
31 May 6.9 01:20:01 18° SW 01:23:37 43° WNW 01:28:35 10° N visible
31 May 7.7 23:06:05 10° ESE 23:09:46 20° ENE 23:13:27 10° NNE visible
01 Jun 6.2 00:46:25 21° SSW 00:49:56 71° W 00:55:10 10° N visible
01 Jun 8.4 02:29:27 10° W 02:31:43 13° WNW 02:33:58 10° NW visible
01 Jun 8.1 22:34:43 10° E 22:36:39 12° ENE 22:38:34 10° NE visible
02 Jun 6.1 00:12:48 20° S 00:16:23 71° E 00:21:36 10° N visible
02 Jun 8.0 01:53:52 10° WSW 01:57:42 20° WNW 02:01:32 10° NNW visible
02 Jun 6.6 23:39:11 16° SSE 23:42:58 43° E 23:47:52 10° NNE visible
03 Jun 7.4 01:19:38 12° SW 01:23:49 32° WNW 01:28:30 10° NNW visible
03 Jun 7.3 23:05:33 11° SE 23:09:39 26° E 23:13:56 10° NNE visible
04 Jun 6.6 00:46:00 16° SSW 00:50:04 52° W 00:55:12 10° N visible
04 Jun 7.9 22:33:18 10° ESE 22:36:27 16° ENE 22:39:36 10° NE visible
05 Jun 6.0 00:12:23 17° S 00:16:27 86° W 00:21:43 10° N visible
05 Jun 8.3 01:55:01 10° W 01:58:02 15° WNW 02:01:05 10° NNW visible
05 Jun 6.2 23:38:43 15° SSE 23:42:57 58° E 23:48:05 10° N visible
